CW8733 Weather Reports


Display with metric or nautical units.
time (UTC)temp
F
wind
direction
speed
MPH
gust
MPH
rain 1hr
in
rain 24hr
in
rain mn
in
humidity
%
barometer
mb
20260509214016 97 225 6.0 14.0 0.00 0.00 0.00 9 1011.1
20260509213016 97 248 11.0 17.0 0.00 0.00 0.00 9 1011.3
20260509212016 97 315 3.0 6.0 0.00 0.00 0.00 9 1011.4
20260509211017 98 203 8.0 14.0 0.00 0.00 0.00 10 1011.7
20260509210036 98 248 6.0 12.0 0.00 0.00 0.00 10 1011.8
20260509205016 97 225 5.0 10.0 0.00 0.00 0.00 11 1012.1
20260509204016 97 270 6.0 12.0 0.00 0.00 0.00 10 1012.4
20260509203116 97 203 4.0 8.0 0.00 0.00 0.00 11 1012.4
20260509202516 96 225 3.0 7.0 0.00 0.00 0.00 11 1012.5
20260509201537 96 248 6.0 10.0 0.00 0.00 0.00 11 1012.8
20260509200516 96 225 6.0 14.0 0.00 0.00 0.00 11 1012.9
20260509195516 95 225 5.0 10.0 0.00 0.00 0.00 12 1012.7
20260509194516 95 180 6.0 10.0 0.00 0.00 0.00 13 1012.9
20260509193516 95 270 4.0 9.0 0.00 0.00 0.00 13 1013.0
20260509192516 94 203 6.0 13.0 0.00 0.00 0.00 14 1013.2
20260509191517 94 135 3.0 8.0 0.00 0.00 0.00 14 1013.2
20260509190516 93 225 2.0 6.0 0.00 0.00 0.00 14 1013.3
20260509185516 93 180 4.0 8.0 0.00 0.00 0.00 13 1013.6
20260509184537 92 203 4.0 7.0 0.00 0.00 0.00 14 1013.7
20260509183516 92 248 4.0 9.0 0.00 0.00 0.00 15 1013.7
20260509182516 91 180 3.0 8.0 0.00 0.00 0.00 16 1014.0
20260509181517 90 225 5.0 10.0 0.00 0.00 0.00 14 1014.2
20260509180536 91 270 4.0 7.0 0.00 0.00 0.00 16 1014.4
20260509175516 90 315 2.0 4.0 0.00 0.00 0.00 16 1014.4
20260509174516 90 180 2.0 5.0 0.00 0.00 0.00 16 1014.6
20260509173516 90 180 2.0 7.0 0.00 0.00 0.00 16 1014.6
20260509172516 89 270 1.0 4.0 0.00 0.00 0.00 16 1014.7
20260509171516 88 113 2.0 3.0 0.00 0.00 0.00 17 1014.8
20260509170516 87 315 2.0 4.0 0.00 0.00 0.00 18 1014.7
20260509165516 87 180 2.0 5.0 0.00 0.00 0.00 19 1014.8
20260509164517 85 0 3.0 6.0 0.00 0.00 0.00 19 1014.7
20260509163516 85 270 2.0 4.0 0.00 0.00 0.00 20 1014.7
20260509162516 84 248 4.0 7.0 0.00 0.00 0.00 20 1014.8
20260509161516 84 203 3.0 5.0 0.00 0.00 0.00 20 1014.8
20260509160516 83 248 2.0 5.0 0.00 0.00 0.00 21 1014.8
20260509155516 82 270 2.0 3.0 0.00 0.00 0.00 21 1014.8
20260509154516 81 293 1.0 4.0 0.00 0.00 0.00 25 1014.9
20260509153516 80 270 1.0 4.0 0.00 0.00 0.00 26 1014.6
20260509152516 79 225 2.0 4.0 0.00 0.00 0.00 27 1014.9
20260509151516 78 225 1.0 3.0 0.00 0.00 0.00 29 1014.8
20260509150516 77 248 1.0 2.0 0.00 0.00 0.00 31 1014.6
20260509145536 75 203 1.0 3.0 0.00 0.00 0.00 33 1014.9
20260509144516 74 248 1.0 2.0 0.00 0.00 0.00 35 1015.0
20260509143516 72 0.0 1.0 0.00 0.00 0.00 36 1014.7
20260509142516 71 248 1.0 3.0 0.00 0.00 0.00 37 1015.1
20260509141516 70 203 1.0 2.0 0.00 0.00 0.00 38 1014.8
20260509140516 69 0.0 2.0 0.00 0.00 0.00 39 1014.7
20260509135516 68 0.0 1.0 0.00 0.00 0.00 41 1014.8
20260509134516 67 225 1.0 3.0 0.00 0.00 0.00 42 1014.6
20260509133536 66 225 1.0 2.0 0.00 0.00 0.00 43 1014.4
20260509132516 65 0.0 1.0 0.00 0.00 0.00 41 1014.2
20260509131636 66 0.0 2.0 0.00 0.00 0.00 39 1014.3
20260509130516 66 0.0 2.0 0.00 0.00 0.00 36 1014.2
20260509125516 67 45 1.0 4.0 0.00 0.00 0.00 35 1014.2
20260509124516 66 23 4.0 6.0 0.00 0.00 0.00 35 1014.2
20260509123516 65 45 6.0 8.0 0.00 0.00 0.00 37 1014.0
20260509122536 64 23 5.0 6.0 0.00 0.00 0.00 39 1013.8
20260509121516 63 45 4.0 5.0 0.00 0.00 0.00 40 1013.6
20260509120516 63 45 4.0 7.0 0.00 0.00 0.00 41 1013.5
20260509115536 63 23 3.0 4.0 0.00 0.00 0.00 42 1013.5
20260509114516 62 23 4.0 5.0 0.00 0.00 0.00 41 1013.4
20260509113516 62 23 4.0 5.0 0.00 0.00 0.00 42 1013.4
20260509112516 62 23 3.0 5.0 0.00 0.00 0.00 42 1013.4
20260509111516 62 23 4.0 5.0 0.00 0.00 0.00 41 1013.4
20260509110556 62 45 4.0 4.0 0.00 0.00 0.00 41 1013.3
20260509105516 63 45 3.0 4.0 0.00 0.00 0.00 41 1013.3
20260509104516 63 23 2.0 3.0 0.00 0.00 0.00 40 1013.3
20260509103536 63 45 4.0 5.0 0.00 0.00 0.00 39 1013.3
20260509102516 63 23 3.0 4.0 0.00 0.00 0.00 39 1013.3
20260509101536 62 45 3.0 4.0 0.00 0.00 0.00 40 1013.4
20260509100536 63 23 2.0 3.0 0.00 0.00 0.00 39 1013.6
20260509095516 62 45 1.0 3.0 0.00 0.00 0.00 38 1013.5
20260509094516 63 90 2.0 3.0 0.00 0.00 0.00 40 1013.5
20260509093516 63 45 1.0 3.0 0.00 0.00 0.00 39 1013.5
20260509092516 63 45 3.0 4.0 0.00 0.00 0.00 39 1013.6
20260509091516 63 23 4.0 5.0 0.00 0.00 0.00 38 1013.5
20260509090516 64 45 2.0 3.0 0.00 0.00 0.00 36 1013.7
20260509085556 65 45 1.0 3.0 0.00 0.00 0.00 34 1013.8
20260509084516 65 68 1.0 3.0 0.00 0.00 0.00 35 1013.8
20260509083516 65 113 1.0 2.0 0.00 0.00 0.00 33 1013.8
20260509082516 66 0.0 2.0 0.00 0.00 0.00 33 1013.6
20260509081536 66 0.0 2.0 0.00 0.00 0.00 33 1013.8
20260509080516 66 113 1.0 3.0 0.00 0.00 0.00 33 1013.8
20260509075556 66 68 2.0 3.0 0.00 0.00 0.00 34 1013.7
20260509074536 65 45 3.0 5.0 0.00 0.00 0.00 33 1013.5
20260509073536 64 23 4.0 5.0 0.00 0.00 0.00 37 1013.5
20260509072516 65 180 1.0 2.0 0.00 0.00 0.00 40 1013.4
20260509071516 65 180 3.0 6.0 0.00 0.00 0.00 37 1013.2
20260509070516 66 158 1.0 2.0 0.00 0.00 0.00 36 1013.3
20260509065516 66 45 1.0 3.0 0.00 0.00 0.00 34 1013.0
20260509064516 66 0.0 2.0 0.00 0.00 0.00 36 1013.1
20260509063516 67 23 1.0 3.0 0.00 0.00 0.00 35 1013.2
20260509062516 67 338 3.0 4.0 0.00 0.00 0.00 35 1013.1
20260509061516 68 180 1.0 1.0 0.00 0.00 0.00 33 1013.0
20260509060516 68 180 2.0 3.0 0.00 0.00 0.00 33 1013.0
20260509055516 69 225 3.0 5.0 0.00 0.00 0.00 32 1012.8
20260509054516 69 45 1.0 2.0 0.00 0.00 0.00 31 1012.8
20260509053536 70 23 2.0 3.0 0.00 0.00 0.00 30 1012.7
20260509052516 69 68 3.0 4.0 0.00 0.00 0.00 32 1012.6
20260509051516 70 158 1.0 2.0 0.00 0.00 0.00 32 1012.7
20260509050556 70 315 1.0 2.0 0.00 0.00 0.00 31 1012.8
20260509045516 71 113 1.0 2.0 0.00 0.00 0.00 30 1012.8
20260509044516 71 0 1.0 4.0 0.00 0.00 0.00 29 1012.7
20260509043536 71 68 1.0 4.0 0.00 0.00 0.00 29 1012.6
20260509042516 72 0.0 2.0 0.00 0.00 0.00 28 1012.4
20260509041556 73 45 1.0 2.0 0.00 0.00 0.00 27 1012.2
20260509040515 73 158 2.0 3.0 0.00 0.00 0.00 27 1012.0
20260509035556 74 45 3.0 4.0 0.00 0.00 0.00 26 1011.9
20260509034515 74 0.0 2.0 0.00 0.00 0.00 24 1011.9
20260509033636 75 0.0 1.0 0.00 0.00 0.00 24 1012.0
20260509032516 76 158 1.0 2.0 0.00 0.00 0.00 22 1011.8
20260509031556 77 158 1.0 2.0 0.00 0.00 0.00 20 1012.0
20260509030516 78 158 1.0 2.0 0.00 0.00 0.00 20 1011.8
20260509025516 79 158 1.0 2.0 0.00 0.00 0.00 20 1011.5
20260509024516 80 90 1.0 3.0 0.00 0.00 0.00 18 1011.5
20260509023515 82 0.0 1.0 0.00 0.00 0.00 17 1011.6
20260509022536 85 0.0 2.0 0.00 0.00 0.00 15 1011.0
20260509021536 86 248 1.0 3.0 0.00 0.00 0.00 13 1011.2
20260509020516 87 248 3.0 7.0 0.00 0.00 0.00 12 1011.1
20260509015515 88 270 3.0 6.0 0.00 0.00 0.00 12 1010.3
20260509014556 89 270 4.0 8.0 0.00 0.00 0.00 12 1010.2
20260509013515 90 248 6.0 12.0 0.00 0.00 0.00 11 1010.3
20260509012515 90 248 6.0 13.0 0.00 0.00 0.00 11 1010.1
20260509011515 90 248 5.0 9.0 0.00 0.00 0.00 11 1010.0
20260509010515 91 270 7.0 15.0 0.00 0.00 0.00 11 1010.3
20260509005515 91 270 8.0 14.0 0.00 0.00 0.00 11 1010.1
20260509004536 91 270 7.0 13.0 0.00 0.00 0.00 11 1010.4
20260509003515 92 270 5.0 9.0 0.00 0.00 0.00 11 1010.3
20260509002515 92 270 7.0 14.0 0.00 0.00 0.00 11 1010.3
20260509001515 92 270 7.0 13.0 0.00 0.00 0.00 10 1010.2
20260509000535 92 270 10.0 16.0 0.00 0.00 0.00 10 1010.2
20260508235515 93 293 7.0 12.0 0.00 0.00 0.00 11 1010.4
20260508234515 93 293 9.0 15.0 0.00 0.00 0.00 10 1010.5
20260508233515 92 225 9.0 13.0 0.00 0.00 0.00 12 1010.5
20260508233016 92 248 11.0 19.0 0.00 0.00 0.00 11 1010.6
20260508232016 93 248 12.0 22.0 0.00 0.00 0.00 11 1010.9
20260508231016 93 270 10.0 16.0 0.00 0.00 0.00 11 1010.9
20260508230017 93 225 9.0 17.0 0.00 0.00 0.00 11 1011.0
20260508225016 93 248 7.0 12.0 0.00 0.00 0.00 11 1011.4
20260508224016 93 225 9.0 16.0 0.00 0.00 0.00 12 1011.5
20260508223016 92 248 8.0 14.0 0.00 0.00 0.00 12 1011.4
20260508222016 93 248 11.0 20.0 0.00 0.00 0.00 11 1011.7
20260508221037 93 225 12.0 20.0 0.00 0.00 0.00 11 1011.8
20260508220016 93 293 9.0 16.0 0.00 0.00 0.00 12 1011.9
20260508215016 93 248 9.0 14.0 0.00 0.00 0.00 12 1011.9